User: anonymous   Login
Location: Mason
(37.5237°N, 89.2543°W)
Time: 08:32:56
(UTC+00:00)
Language:

Cosmos 1666 - Orbit

View from above orbital plane
View from above orbital plane
View from above satellite
View from above satellite

Ground track
Ground track

The orbit data is extracted from the following two-line orbital elements,

1 15889U 85058A   22148.85085411  .00004490  00000-0  19840-3 0  9998
2 15889  82.4871 359.9413 0014410 250.7395 109.2282 15.21378132 16091
Epoch (UTC): 28 May 2022 20:25:13
Eccentricity: 0.0014410
inclination: 82.4871°
perigee height: 492 km
apogee height: 511 km
right ascension of ascending node: 359.9413°
argument of perigee: 250.7395°
revolutions per day: 15.21378132
mean anomaly at epoch: 109.2282°
orbit number at epoch: 1609

The dashed part of the orbit path shows where the satellite is in the earth's shadow,  

DLR